| time (UTC) | temp C | wind direction | speed KPH | gust KPH | rain 1hr cm | rain 24hr cm | rain mn cm | humidity % | barometer mb |
| 20260508140050 | 20 | 0 | 0.0 | 4.8 | 0.00 | 0.00 | 0.00 | 91 | 1014.7 |
| 20260508134546 | 20 | 0 | 0.0 | 11.3 | 0.00 | 0.00 | 0.00 | 91 | 1014.6 |
| 20260508133051 | 20 | 60 | 1.6 | 11.3 | 0.00 | 0.00 | 0.00 | 91 | 1014.6 |
| 20260508131548 | 20 | 33 | 4.8 | 11.3 | 0.00 | 0.00 | 0.00 | 91 | 1014.4 |
| 20260508130047 | 19 | 0 | 1.6 | 12.9 | 0.00 | 0.00 | 0.00 | 91 | 1014.2 |
| 20260508124548 | 19 | 98 | 3.2 | 9.7 | 0.00 | 0.00 | 0.00 | 91 | 1014.5 |
| 20260508123051 | 19 | 0 | 0.0 | 12.9 | 0.00 | 0.00 | 0.00 | 91 | 1014.6 |
| 20260508121545 | 18 | 49 | 3.2 | 11.3 | 0.00 | 0.00 | 0.00 | 91 | 1014.3 |
| 20260508120046 | 18 | 57 | 0.0 | 11.3 | 0.00 | 0.00 | 0.00 | 90 | 1014.6 |
| 20260508114602 | 18 | 59 | 0.0 | 9.7 | 0.00 | 0.00 | 0.00 | 90 | 1015.1 |
| 20260508113103 | 18 | 60 | 1.6 | 8.0 | 0.00 | 0.00 | 0.00 | 90 | 1015.3 |
| 20260508111559 | 18 | 0 | 1.6 | 9.7 | 0.00 | 0.00 | 0.00 | 90 | 1015.7 |
| 20260508110044 | 18 | 360 | 1.6 | 6.4 | 0.00 | 0.00 | 0.00 | 89 | 1015.5 |
| 20260508104548 | 18 | 0 | 1.6 | 6.4 | 0.00 | 0.00 | 0.00 | 90 | 1015.5 |
| 20260508103048 | 18 | 15 | 1.6 | 9.7 | 0.00 | 0.00 | 0.00 | 90 | 1015.4 |
| 20260508101545 | 18 | 53 | 1.6 | 6.4 | 0.00 | 0.00 | 0.00 | 89 | 1014.9 |
| 20260508100048 | 18 | 76 | 3.2 | 9.7 | 0.00 | 0.00 | 0.00 | 89 | 1014.7 |
| 20260508094547 | 18 | 35 | 1.6 | 8.0 | 0.00 | 0.00 | 0.00 | 89 | 1014.5 |
| 20260508093051 | 18 | 45 | 3.2 | 8.0 | 0.00 | 0.00 | 0.00 | 89 | 1014.2 |
| 20260508091602 | 18 | 0 | 1.6 | 8.0 | 0.00 | 0.00 | 0.00 | 89 | 1014.2 |
| 20260508090047 | 18 | 0 | 0.0 | 9.7 | 0.00 | 0.00 | 0.00 | 89 | 1014.6 |
| 20260508084548 | 18 | 41 | 3.2 | 6.4 | 0.00 | 0.03 | 0.00 | 89 | 1014.6 |
| 20260508083050 | 18 | 0 | 0.0 | 6.4 | 0.00 | 0.03 | 0.00 | 89 | 1014.3 |
| 20260508081556 | 18 | 0 | 0.0 | 9.7 | 0.00 | 0.03 | 0.00 | 89 | 1014.5 |
| 20260508080048 | 18 | 63 | 0.0 | 6.4 | 0.00 | 0.03 | 0.00 | 89 | 1014.7 |
| 20260508074548 | 18 | 0 | 1.6 | 11.3 | 0.00 | 0.03 | 0.00 | 89 | 1014.5 |
| 20260508073051 | 18 | 34 | 1.6 | 14.5 | 0.00 | 0.03 | 0.00 | 89 | 1013.8 |
| 20260508071546 | 18 | 64 | 0.0 | 8.0 | 0.00 | 0.03 | 0.00 | 89 | 1014.7 |
| 20260508070053 | 18 | 59 | 0.0 | 8.0 | 0.00 | 0.03 | 0.00 | 89 | 1015.7 |
| 20260508064551 | 18 | 44 | 0.0 | 8.0 | 0.00 | 0.03 | 0.00 | 89 | 1015.5 |
| 20260508063048 | 18 | 58 | 0.0 | 8.0 | 0.00 | 0.03 | 0.00 | 89 | 1015.3 |
| 20260508061547 | 18 | 39 | 1.6 | 8.0 | 0.00 | 0.03 | 0.00 | 89 | 1015.3 |
| 20260508060048 | 18 | 56 | 0.0 | 14.5 | 0.00 | 0.03 | 0.00 | 89 | 1015.4 |
| 20260508054549 | 18 | 42 | 1.6 | 8.0 | 0.00 | 0.03 | 0.00 | 88 | 1015.8 |
| 20260508053047 | 18 | 0 | 0.0 | 8.0 | 0.00 | 0.03 | 0.00 | 88 | 1016.4 |
| 20260508051549 | 18 | 22 | 0.0 | 8.0 | 0.00 | 0.03 | 0.00 | 88 | 1016.6 |
| 20260508050053 | 18 | 0 | 0.0 | 4.8 | 0.00 | 0.03 | 0.00 | 88 | 1016.0 |
| 20260508044546 | 18 | 61 | 1.6 | 6.4 | 0.00 | 0.03 | 0.03 | 88 | 1015.8 |
| 20260508043053 | 18 | 39 | 0.0 | 6.4 | 0.00 | 0.03 | 0.03 | 88 | 1016.3 |
| 20260508041548 | 18 | 0 | 0.0 | 4.8 | 0.00 | 0.03 | 0.03 | 88 | 1016.3 |
| 20260508040052 | 18 | 0 | 0.0 | 6.4 | 0.00 | 0.03 | 0.03 | 87 | 1016.2 |
| 20260508034552 | 18 | 35 | 0.0 | 9.7 | 0.00 | 0.03 | 0.03 | 87 | 1016.2 |
| 20260508033048 | 18 | 0 | 0.0 | 6.4 | 0.00 | 0.03 | 0.03 | 87 | 1016.0 |
| 20260508031549 | 18 | 360 | 0.0 | 6.4 | 0.00 | 0.03 | 0.03 | 87 | 1016.5 |
| 20260508030051 | 18 | 53 | 3.2 | 12.9 | 0.00 | 0.03 | 0.03 | 87 | 1016.3 |
| 20260508024557 | 18 | 333 | 0.0 | 6.4 | 0.00 | 0.03 | 0.03 | 87 | 1016.4 |
| 20260508023050 | 18 | 45 | 1.6 | 9.7 | 0.00 | 0.03 | 0.03 | 86 | 1016.1 |
| 20260508021550 | 18 | 0 | 0.0 | 9.7 | 0.00 | 0.03 | 0.03 | 85 | 1016.3 |
| 20260508020044 | 19 | 44 | 3.2 | 9.7 | 0.00 | 0.03 | 0.03 | 85 | 1016.2 |
| 20260508014546 | 19 | 0 | 0.0 | 12.9 | 0.00 | 0.03 | 0.03 | 85 | 1015.9 |
| 20260508013043 | 20 | 63 | 1.6 | 12.9 | 0.00 | 0.03 | 0.03 | 85 | 1015.6 |
| 20260508011557 | 20 | 79 | 1.6 | 14.5 | 0.00 | 0.03 | 0.03 | 84 | 1015.3 |
| 20260508010046 | 20 | 71 | 3.2 | 12.9 | 0.00 | 0.03 | 0.03 | 84 | 1015.4 |
| 20260508004556 | 21 | 22 | 1.6 | 12.9 | 0.00 | 0.03 | 0.03 | 83 | 1015.4 |
| 20260508003048 | 21 | 78 | 3.2 | 17.7 | 0.00 | 0.03 | 0.03 | 83 | 1015.4 |
| 20260508001548 | 21 | 55 | 4.8 | 16.1 | 0.00 | 0.03 | 0.03 | 83 | 1015.4 |
| 20260508000052 | 22 | 15 | 3.2 | 12.9 | 0.00 | 0.03 | 0.03 | 82 | 1015.5 |
| 20260507234553 | 22 | 77 | 0.0 | 12.9 | 0.00 | 0.03 | 0.03 | 82 | 1015.4 |
| 20260507233052 | 22 | 79 | 1.6 | 14.5 | 0.00 | 0.03 | 0.03 | 81 | 1015.3 |
| 20260507231551 | 23 | 67 | 4.8 | 14.5 | 0.00 | 0.03 | 0.03 | 81 | 1015.2 |
| 20260507230054 | 23 | 340 | 1.6 | 9.7 | 0.00 | 0.03 | 0.03 | 82 | 1015.2 |
| 20260507224550 | 23 | 331 | 3.2 | 14.5 | 0.00 | 0.03 | 0.03 | 82 | 1015.3 |
| 20260507223048 | 23 | 343 | 3.2 | 17.7 | 0.00 | 0.03 | 0.03 | 81 | 1015.2 |
| 20260507221553 | 24 | 351 | 3.2 | 12.9 | 0.00 | 0.03 | 0.03 | 80 | 1015.2 |
| 20260507220056 | 23 | 313 | 6.4 | 19.3 | 0.00 | 0.03 | 0.03 | 81 | 1015.2 |
| 20260507214548 | 24 | 339 | 3.2 | 17.7 | 0.00 | 0.03 | 0.03 | 82 | 1015.2 |
| 20260507213050 | 23 | 5 | 3.2 | 16.1 | 0.00 | 0.03 | 0.03 | 83 | 1015.2 |
| 20260507211550 | 24 | 112 | 4.8 | 17.7 | 0.00 | 0.03 | 0.03 | 82 | 1015.2 |
| 20260507210050 | 23 | 85 | 4.8 | 14.5 | 0.00 | 0.03 | 0.03 | 82 | 1015.2 |
| 20260507204552 | 23 | 319 | 3.2 | 16.1 | 0.00 | 0.03 | 0.03 | 84 | 1015.3 |
| 20260507203046 | 23 | 0 | 3.2 | 12.9 | 0.00 | 0.03 | 0.03 | 84 | 1015.4 |
| 20260507201558 | 23 | 333 | 4.8 | 14.5 | 0.00 | 0.03 | 0.03 | 83 | 1015.4 |
| 20260507200054 | 23 | 337 | 1.6 | 16.1 | 0.00 | 0.03 | 0.03 | 85 | 1015.3 |
| 20260507194547 | 23 | 13 | 4.8 | 16.1 | 0.00 | 0.03 | 0.03 | 84 | 1015.5 |
| 20260507193052 | 23 | 310 | 4.8 | 19.3 | 0.00 | 0.03 | 0.03 | 84 | 1015.6 |
| 20260507191554 | 23 | 52 | 4.8 | 16.1 | 0.00 | 0.03 | 0.03 | 85 | 1015.7 |
| 20260507190052 | 23 | 294 | 3.2 | 12.9 | 0.00 | 0.03 | 0.03 | 86 | 1015.9 |
| 20260507184554 | 23 | 70 | 3.2 | 12.9 | 0.00 | 0.03 | 0.03 | 86 | 1016.1 |
| 20260507183050 | 22 | 91 | 6.4 | 17.7 | 0.00 | 0.03 | 0.03 | 86 | 1016.2 |
| 20260507181549 | 22 | 288 | 4.8 | 12.9 | 0.00 | 0.03 | 0.03 | 88 | 1016.2 |
| 20260507180049 | 22 | 355 | 3.2 | 12.9 | 0.00 | 0.03 | 0.03 | 88 | 1016.5 |
| 20260507174559 | 21 | 38 | 3.2 | 16.1 | 0.00 | 0.03 | 0.03 | 87 | 1016.3 |
| 20260507173051 | 21 | 44 | 4.8 | 14.5 | 0.00 | 0.03 | 0.03 | 89 | 1016.3 |
| 20260507171601 | 21 | 74 | 4.8 | 12.9 | 0.00 | 0.03 | 0.03 | 89 | 1016.1 |
| 20260507170052 | 20 | 321 | 3.2 | 16.1 | 0.00 | 0.03 | 0.03 | 90 | 1016.4 |
| 20260507164552 | 20 | 0 | 1.6 | 12.9 | 0.00 | 0.03 | 0.03 | 91 | 1016.5 |
| 20260507163048 | 19 | 347 | 3.2 | 11.3 | 0.00 | 0.03 | 0.03 | 91 | 1016.7 |
| 20260507161626 | 19 | 19 | 1.6 | 12.9 | 0.00 | 0.03 | 0.03 | 91 | 1016.6 |
| 20260507160055 | 18 | 0 | 4.8 | 12.9 | 0.00 | 0.03 | 0.03 | 91 | 1016.4 |
| 20260507154554 | 18 | 50 | 3.2 | 12.9 | 0.00 | 0.03 | 0.03 | 92 | 1016.4 |
| 20260507153048 | 17 | 318 | 3.2 | 12.9 | 0.00 | 0.03 | 0.03 | 92 | 1016.8 |
| 20260507151548 | 17 | 16 | 3.2 | 12.9 | 0.00 | 0.03 | 0.03 | 92 | 1016.7 |
| 20260507150051 | 17 | 71 | 1.6 | 11.3 | 0.00 | 0.03 | 0.03 | 94 | 1016.9 |
| 20260507144614 | 16 | 24 | 1.6 | 11.3 | 0.00 | 0.03 | 0.03 | 93 | 1016.8 |
| 20260507143052 | 16 | 80 | 3.2 | 9.7 | 0.00 | 0.03 | 0.03 | 94 | 1016.7 |
| 20260507141557 | 16 | 56 | 0.0 | 11.3 | 0.00 | 0.03 | 0.03 | 94 | 1016.7 |